www.pogodaiklimat.ru

Погода и климат >> Архив погоды >> Мексика >> Acapulco


АРХИВ ПОГОДЫ в Acapulco

Время (UTC), дата Ветер
(напр.,м/с)
 
Видим.   Явления Облачность Т
(С)
Тd
(С)
f
(%)
Тe
(С)
Тes
(С)
Комфортность P
(гПа)
Po
(гПа)
Тmin
(С)
Tmax
(С)
R
(мм)
R24
(мм)
S
(см)
21 12.10 ЮЗ 3 20 км 5/1 900 м
[Cu med, cong Ac trans Ci fib]
+32.6 +25.0 64 +46 +53 опасность
перегрева
1009.7 1009.3
00 13.10 ЮЗ 2 20 км 9/5 600 м
[Cu med, cong Ac trans]
+30.4 +25.0 73 +44 +44 опасность
перегрева
1010.2 1009.7 +23.0 +34.0
03 13.10 З 1 10 км 9/5 900 м
[Cu hum Ac trans]
+27.8 +25.3 86 +40 +40 очень
душно
1012.0 1011.5
06 13.10 СЗ 1 10 км 4/1 600 м
[Cu hum Ac trans]
+26.8 +24.8 89 +38 +38 очень
душно
1011.8 1011.5 +23.0 +34.0
09 13.10 С 1 10 км 1/1 900 м
[Cu hum]
+25.6 +24.2 92 +35 +35 очень
душно
1011.1 1010.7
12 13.10 СЗ 1 10 км 4/1 600 м
[Cu hum Ac trans]
+25.0 +23.8 93 +34 +34 очень
душно
1011.1 1010.7 +24.1 +34.0
15 13.10 С 1 20 км 1/1 900 м
[Cu med, cong]
+28.5 +23.8 76 +39 +45 очень
душно
1011.8 1011.3
18 13.10 З 2 20 км 1/1 900 м
[Cu med, cong]
+32.1 +25.1 67 +46 +62 опасность
перегрева
1011.1 1010.7 +24.1 +33.0
21 13.10 З 4 20 км 1/1 900 м
[Cu med, cong]
+32.1 +25.1 67 +46 +53 опасность
перегрева
1008.3 1007.8
00 14.10 С 2 20 км 8/1 600 м
[Cu med, cong Ac und Cs]
+30.8 +25.2 72 +45 +45 опасность
перегрева
1008.3 1008.0 +24.1 +33.2
03 14.10 З 2 10 км 10/4 870 м
[Cu med, cong Ac und Cs]
+28.4 +25.4 84 +42 +42 опасность
перегрева
1011.4 1011.1
06 14.10 СЗ 1 10 км 10/5 600 м
[Cu med, cong Ac und]
+26.2 +23.1 83 +35 +35 очень
душно
1012.5 1012.1 +24.1 +33.2
09 14.10 З 1 10 км 10/6 840 м
[Cu med, cong Ac trans]
+25.6 +22.8 85 +34 +34 очень
душно
1011.5 1011.0
12 14.10 ЮЗ 1 10 км 9/5 840 м
[Cu med, cong Ac trans]
+25.2 +23.0 88 +34 +34 очень
душно
1011.8 1011.4 +24.2 +33.2
15 14.10 ЮЗ 1 20 км 8/4 750 м
[Cu med, cong Ac trans]
+26.8 +23.9 84 +37 +39 очень
душно
1012.7 1012.3
18 14.10 Ю 1 20 км 8/4 800 м
[Cu med, cong Ac trans]
+29.6 +26.3 82 +45 +52 опасность
перегрева
1012.3 1011.8 +24.2 +34.2
21 14.10 З 1 20 км 8/4 900 м
[Cu med, cong Ac trans]
+31.8 +28.0 80 +52 +57 опасность
перегрева
1011.1 1010.6
00 15.10 Ю 1 20 км 5/4 600 м
[Cu med, cong Ac trans]
+32.2 +25.8 69 +47 +48 опасность
перегрева
1010.2 1009.7 +24.2 +34.2
03 15.10 З 1 10 км 5/4 900 м
[Cu med, cong Ac trans]
+28.2 +25.7 86 +42 +42 опасность
перегрева
1012.0 1011.5
06 15.10 З 1 10 км 5/4 600 м
[Cu med, cong Ac trans]
+27.2 +25.2 89 +39 +39 очень
душно
1012.7 1012.2 +24.2 +34.2
09 15.10 З 2 10 км 4/4 900 м
[Cu med, cong]
+26.2 +24.5 90 +37 +37 очень
душно
1012.3 1011.9
12 15.10 ЮЗ 1 10 км 4/4 1000 м
[Cu med, cong]
+25.3 +23.7 91 +34 +34 очень
душно
1011.6 1011.3 +23.8 +34.2
15 15.10 З 2 20 км 8/4 840 м
[Sc diur, vesp Ac trans]
+28.7 +24.0 76 +40 +42 очень
душно
1012.7 1012.3
18 15.10 З 1 20 км 4/0 1500 м
[Ac trans]
+33.5 +24.6 60 +47 +62 опасность
перегрева
1011.8 1011.3 +23.8 +34.2
21 15.10 З 2 20 км 6/3 800 м
[Cu med, cong Ac trans]
+33.2 +26.6 68 +50 +56 опасность
перегрева
1009.7 1009.2
00 16.10 ЮЗ 2 20 км 5/3 600 м
[Cu med, cong Ac trans]
+32.0 +25.3 68 +46 +46 опасность
перегрева
1009.7 1009.3 +23.8 +34.6
03 16.10 С 1 10 км 4/3 840 м
[Cu med, cong Ac und]
+28.0 +26.3 91 +43 +43 опасность
перегрева
1012.7 1012.2
06 16.10 З 1 10 км 4/3 600 м
[Cu Sc Ac und]
+26.9 +25.8 94 +40 +40 очень
душно
1013.2 1012.9 +23.8 +34.6
09 16.10 З 1 10 км 3/3 840 м
[Cu med, cong]
+26.1 +24.7 92 +37 +37 очень
душно
1011.6 1011.2
12 16.10 С 1 15 км 3/3 600 м
[Cu med, cong]
+24.9 +23.5 92 +34 +34 очень
душно
1011.8 1011.4 +23.9 +34.6
15 16.10 СЗ 1 20 км 3/1 900 м
[Cu hum Ac trans]
+29.2 +25.1 79 +42 +47 опасность
перегрева
1012.3 1011.7
18 16.10 З 2 20 км 3/1 900 м
[Cu hum Ac trans]
+33.4 +24.8 61 +47 +60 опасность
перегрева
1010.2 1010.1 +23.9 +33.9
21 16.10 З 3 20 км 3/1 900 м
[Cu hum Ac trans]
+33.2 +26.6 68 +50 +57 опасность
перегрева
1009.3 1008.7
00 17.10 З 2 20 км 4/3 600 м
[Cu hum Ac trans]
+31.5 +26.5 75 +48 +48 опасность
перегрева
1008.8 1008.4 +23.9 +35.0
03 17.10 ЮЗ 1 10 км 4/3 960 м
[Cu hum Ac trans]
+29.6 +26.8 85 +46 +46 опасность
перегрева
1010.4 1009.9
06 17.10 Ю 1 10 км 4/3 600 м
[Cu hum Ac trans]
+28.0 +26.6 92 +43 +43 опасность
перегрева
1011.4 1010.9 +23.9 +35.0
09 17.10 Ю 2 10 км 3/3 900 м
[Cu med, cong]
+26.0 +25.6 98 +38 +38 очень
душно
1010.9 1010.0
12 17.10 Ю 2 10 км 3/3 1000 м
[Cu med, cong]
+25.0 +24.4 96 +35 +35 очень
душно
1010.4 1009.9 +24.5 +35.0
15 17.10 СЗ 1 20 км 1/0
[Cs]
+29.2 +23.0 69 +39 +45 очень
душно
1012.5 1012.1
18 17.10 ЮЗ 2 20 км 1/1 900 м
[Cu hum]
+32.9 +25.8 66 +48 +63 опасность
перегрева
1011.1 1010.9 +24.5 +34.0
21 17.10 ЮЗ 3 20 км 1/1 900 м
[Cu hum]
+33.5 +27.5 71 +53 +61 опасность
перегрева
1008.3 1008.1
00 18.10 З 2 20 км 3/1 600 м
[Cu hum Cs]
+31.3 +27.8 82 +51 +51 опасность
перегрева
1008.8 1008.4 +24.5 +34.9
03 18.10 СВ 1 10 км 5/3 900 м
[Cu med, cong Cs]
+28.9 +27.4 92 +47 +47 опасность
перегрева
1011.4 1010.9
06 18.10 СВ 1 10 км 5/3 600 м
[Cu med, cong Cs]
+28.4 +27.0 92 +45 +45 опасность
перегрева
1012.3 1011.9 +24.5 +34.9
09 18.10 З 1 10 км 4/1 900 м
[Cu hum Cs]
+27.3 +26.3 94 +41 +41 опасность
перегрева
1010.9 1010.5
12 18.10 С 1 12 км 1/0
[Cs]
+26.5 +25.7 95 +39 +39 очень
душно
1010.9 1010.6 +25.4 +34.9
15 18.10 С 1 20 км ясно +30.5 +25.5 75 +45 +51 опасность
перегрева
1012.5 1012.1
18 18.10 З 1 20 км ясно +33.9 +27.1 68 +52 +72 опасность
перегрева
1011.3 1010.9 +25.4 +35.0
21 18.10 СЗ 3 20 км 1/1 900 м
[Cu med, cong]
+32.8 +27.6 74 +52 +61 опасность
перегрева
1008.3 1007.8
00 19.10 З 3 20 км мгла 6/4 600 м
[Cb cap Ac und]
+31.5 +27.2 78 +50 +50 опасность
перегрева
1009.3 1008.7 +25.4 +35.0
03 19.10 З 1 10 км 5/3 900 м
[Cu med, cong Ac und]
+29.3 +27.8 92 +48 +48 опасность
перегрева
1011.3 1011.0
06 19.10 З 1 10 км зарница 5/3 600 м
[Cu med, cong Ac und]
+28.3 +27.6 96 +46 +46 опасность
перегрева
1012.0 1011.5 +25.4 +35.0
09 19.10 ЮВ 1 10 км 8/4 900 м
[Cu med, cong Ac As]
+28.2 +27.1 94 +45 +45 опасность
перегрева
1010.9 1011.5
12 19.10 СЗ 1 10 км 4/3 600 м
[Sc Ac und]
+27.1 +26.1 94 +41 +41 опасность
перегрева
1010.4 1009.9 +26.2 +35.0
15 19.10 СВ 1 20 км 4/1 900 м
[Sc Ac trans]
+30.0 +25.8 78 +45 +49 опасность
перегрева
1011.6 1011.1

 

Местоположение метеостанции Acapulco (Мексика): широта 16.83 долгота -99.93 высота над уровнем моря 3 м.

В архиве по умолчанию представлена погода в Acapulco за последнюю неделю. Архивные данные за месяц целиком и за предыдущие месяцы, начиная с января 2011 года, Вы можете получить, выбрав интересующий диапазон дат из раскрывающегося списка и нажав кнопку "Ввод!".

Внимание! Время в таблицах - всемирное. Для получения местного времени необходимо прибавить поправку, которая в Acapulco равна -6 ч.

Смотрите также архив погоды в соседних городах и на ближайших метеорологических станциях:

Погода в Chilpancingo (Мексика) (92 км)
Погода в Zacatepec (Мексика) (223 км)
Погода в Cuernavaca (Мексика) (240 км)
Погода в Huajuapan De Leon (Мексика) (253 км)
Погода в Toluca (Мексика) (274 км)
Погода в Geografia Unam (Мексика) (288 км)
Погода в Mexico City (Мексика) (297 км)
Погода в Puebla (Мексика) (310 км)
Погода в Tlaxcala Airport (Мексика) (329 км)
Погода в Tlaxcala (Мексика) (329 км)

Пояснения к столбцам:

Ветер - указаны скорость ветра в м/с - средняя за 10 мин, порывы в срок и между сроками (в фигурных скобках) и направление, откуда дует ветер: С - северный, СВ - северо-восточный, В - восточный, ЮВ - юго-восточный, Ю - южный, ЮЗ - юго-западный, З - западный, СЗ - северо-западный.
Видимость - горизонтальная дальность видимости в метрах или километрах. При видимости от 1 до 10 км при отсутствии осадков обычно наблюдается дымка, при ухудшении видимости до 1 км и менее - туман. В сухую погоду видимость может ухудшаться дымом, пылью или мглою.
Явления - указаны атмосферные явления, наблюдавшиеся в срок или в последний час перед сроком; фигурными скобками обозначены явления, наблюдавшиеся между сроками (за 1-3 часа до срока); квадратными скобками обозначены град или гололедные отложения с указанием их диаметра в мм.
Облачность - указаны через наклонную черту общая и нижняя облачность в баллах и высота нижней границы облаков в метрах; квадратными скобками обозначены формы облаков: Ci - перистые, Cs - перисто-слоистые, Cc - перисто-кучевые, Ac - высококучевые, As - высокослоистые, Sc - слоисто-кучевые, Ns - слоисто-дождевые, Cu - кучевые, Cb - кучево-дождевые. Подробнее классификацию облаков см. в Атласе облаков (PDF).
T - Температура воздуха - температура, измеренная на высоте 2 м над землей.
Td - Температура точки росы - температура, при понижении до которой содержащийся в воздухе водяной пар достигнет насыщения.
f - Относительная влажность воздуха - влажноcть воздуха, измеренная на высоте 2 м над землей.
Te - Эффективная температура - температура, которую ощущает одетый по сезону человек в тени. Характеристика душности погоды. При расчете учитывается влияние влажности воздуха и скорости ветра на теплоощущения человека.
Tes - Эффективная температура на солнце - температура, которую ощущает человек, с поправкой на солнечный нагрев. Характеристика знойности погоды. Зависит от высоты солнца над горизонтом, облачности и скорости ветра. Ночью, в пасмурную погоду, а также при ветре 12 м/с и более поправка равна нулю.
P - Атмосферное давление - приведенное к уровню моря атмосферное давление.
Po - Атмосферное давление - измеренное на уровне метеостанции атмосферное давление.
Tmin - Минимальная температура - минимум температуры воздуха на высоте 2 м над землей.
Tmax - Максимальная температура - максимум температуры воздуха на высоте 2 м над землей.
R - Количество осадков - Количество выпавших осадков за период времени, мм. При наведении курсора мыши на число - период времени, за который выпало указанное количество осадков.
R24 - Количество осадков - Количество выпавших осадков за 24 часа, мм.
S - Снежный покров - Высота снежного покрова, см. При наведении курсора мыши на число - состояние снежного покрова и степень покрытия местности в баллах.